EST,Max TemperatureF,Mean TemperatureF,Min TemperatureF,Max Dew PointF,MeanDew PointF,Min DewpointF,Max Humidity, Mean Humidity, Min Humidity, Max Sea Level PressureIn, Mean Sea Level PressureIn, Min Sea Level PressureIn, Max VisibilityMiles, Mean VisibilityMiles, Min VisibilityMiles, Max Wind SpeedMPH, Mean Wind SpeedMPH, Max Gust SpeedMPH,PrecipitationIn, CloudCover, Events, WindDirDegrees
2013-2-1,29,24,18,11,6,1,59,48,37,30.06,29.81,29.60,10,10,10,29,16,41,T,4,,273
2013-2-2,26,20,13,13,4,-2,67,52,36,30.23,30.10,30.02,10,10,5,20,13,25,T,3,Snow,248
2013-2-3,25,21,17,20,16,13,92,80,68,30.02,29.83,29.70,10,8,3,13,4,16,0.03,7,Snow,8
2013-2-4,25,21,16,12,8,3,80,60,40,29.93,29.81,29.72,10,10,10,29,14,39,T,3,,273
2013-2-5,26,22,17,20,13,6,92,74,55,30.01,29.94,29.87,10,8,2,15,4,20,0.01,7,Snow,168
2013-2-6,34,27,20,22,15,0,96,67,37,30.29,30.02,29.87,10,8,2,23,10,31,T,5,Snow,269
2013-2-7,29,21,13,4,1,-1,67,48,29,30.51,30.44,30.30,10,10,10,12,6,15,0.00,3,,349
2013-2-8,24,20,16,21,16,6,92,69,45,30.43,29.99,29.56,10,3,0,33,15,47,1.52,8,Fog-Snow,46
2013-2-9,21,17,12,16,10,-2,92,73,53,30.21,29.76,29.54,10,2,0,32,21,51,0.26,5,Fog-Snow,333
2013-2-10,35,23,11,2,-2,-5,53,39,25,30.40,30.34,30.21,10,10,10,24,10,34,0.00,0,,288
2013-2-11,43,33,22,43,32,1,100,68,36,30.31,29.85,29.59,10,3,0,23,11,31,0.24,7,Fog-Rain-Snow,220
2013-2-12,40,36,32,35,25,21,100,77,54,29.88,29.74,29.60,10,9,1,29,16,42,0.00,6,,274
2013-2-13,39,34,28,21,20,18,69,59,48,29.86,29.80,29.71,10,10,10,17,7,21,0.00,3,,295
2013-2-14,40,34,28,23,19,17,72,56,40,29.98,29.87,29.71,10,10,9,14,6,16,T,1,Snow,275
2013-2-15,48,37,25,30,27,21,100,71,42,29.98,29.95,29.91,10,7,0,26,10,36,0.00,1,Fog,226
2013-2-16,38,32,25,28,24,14,92,70,47,29.94,29.88,29.71,10,6,2,16,9,23,0.04,8,Snow,347
2013-2-17,25,19,12,16,7,-2,80,60,39,29.69,29.53,29.38,10,4,1,38,22,55,0.09,7,Snow,321
2013-2-18,26,18,10,1,-3,-6,58,42,25,30.15,29.98,29.72,10,10,10,36,21,46,0.00,0,,276
2013-2-19,43,32,20,40,29,2,100,70,40,30.17,29.81,29.56,10,9,2,21,11,26,0.28,6,Rain,222
2013-2-20,37,30,22,36,14,7,62,58,54,29.73,29.62,29.53,10,10,9,27,19,40,T,5,,276
2013-2-21,30,25,20,14,10,8,68,55,42,30.22,29.89,29.73,10,10,10,32,18,42,T,2,,293
2013-2-22,36,29,21,21,17,14,77,61,44,30.37,30.32,30.23,10,10,10,24,8,35,0.00,1,,65
2013-2-23,33,31,28,31,27,21,100,88,75,30.31,30.07,29.86,10,5,0,14,7,16,0.15,8,Fog-Rain-Snow,110
2013-2-24,32,31,30,32,30,28,100,93,85,29.89,29.77,29.68,7,2,0,18,10,28,0.90,8,Fog-Rain-Snow,20
2013-2-25,35,31,27,30,28,24,92,84,75,30.24,30.05,29.85,10,9,2,16,7,22,T,6,Snow,323
2013-2-26,38,35,32,29,26,23,85,70,54,30.32,30.25,30.12,10,10,10,15,6,21,0.00,6,,85
2013-2-27,38,35,31,38,33,27,100,89,78,30.11,29.80,29.58,10,3,0,22,13,34,1.24,8,Fog-Rain-Snow,54
2013-2-28,41,36,31,35,32,31,100,87,73,29.64,29.57,29.52,10,8,0,10,5,14,0.01,7,Fog-Snow,274